Orbital Elements at Epoch 2459000.5 (2020-May-31.0) TDB
Reference: JPL 18 (heliocentric ecliptic J2000)
Element | Value | Uncertainty (1-sigma) | Units |
e | .1431905529181687 | 3.2334e-08 | |
a | 2.323513396638111 | 1.2907e-08 | au |
q | 1.990808228660728 | 7.6679e-08 | au |
i | 9.881432408430232 | 4.155e-06 | deg |
node | 110.97707206 | 2.5609e-05 | deg |
peri | 195.5056331555085 | 3.0438e-05 | deg |
M | 53.42006844846349 | 1.6887e-05 | deg |
tp | 2458808.536730803252 (2019-Nov-21.03673080) | 6.049e-05 | TDB |
period | 1293.648228427474 3.54 | 1.0779e-05 2.951e-08 | d yr |
n | .2782827604051272 | 2.3188e-09 | deg/d |
Q | 2.656218564615494 | 1.4755e-08 | au |
|
| | Orbit Determination Parameters
Additional Information
|